User: anonymous   Login
Location: Ballingbuur
(53.0000°N, 5.7667°E)
Time: 04:28:53
(UTC+00:00)
Language:

Meteor 1-26 Rocket - Orbit

View from above orbital plane
View from above orbital plane
View from above satellite
View from above satellite

Ground track
Ground track

The orbit data is extracted from the following two-line orbital elements,

1 09482U 76102B   21059.45047919  .00000057  00000-0  25823-4 0  9991
2 09482  81.2538 243.1163 0082368 321.6754  37.8579 14.07539257277814
Epoch (UTC): 28 February 2021 10:48:41
Eccentricity: 0.0082368
inclination: 81.2538°
perigee height: 808 km
apogee height: 927 km
right ascension of ascending node: 243.1163°
argument of perigee: 321.6754°
revolutions per day: 14.07539257
mean anomaly at epoch: 37.8579°
orbit number at epoch: 27781

The dashed part of the orbit path shows where the satellite is in the earth's shadow,  

DLR